Theta_e
315 314 314 315 316 316 316 315 315 315 315 320 317 313 309 307 305 303 302 300 299 299 303 300 299 303 309 318 323 324 324 324 323 322 321 321 323 324 323 323 325 324 323 323
311 313 312 311 310 310 310 311 312 313 318 318 314 311 307 305 302 300 298 297 299 299 300 303 298 299 301 305 314 320 322 322 322 321 320 321 323 323 321 320 321 321 321 321
310 308 309 310 310 309 311 312 313 316 317 317 312 307 304 302 299 298 297 296 298 298 298 300 301 299 300 300 303 309 315 317 318 320 321 321 323 323 323 321 320 320 321 319
309 308 310 310 311 311 312 312 311 312 312 314 306 298 297 296 296 295 295 295 298 299 299 299 300 301 301 301 301 302 304 306 308 310 314 319 321 322 322 322 321 321 321 321
308 310 310 310 310 311 312 312 309 310 311 308 302 300 296 294 295 294 294 295 295 298 300 300 300 300 300 301 301 303 303 301 301 302 304 306 308 308 312 314 313 315 316 316
309 307 310 312 309 309 311 313 308 308 307 306 305 312 298 293 294 294 294 294 293 293 298 300 300 300 300 300 301 302 301 300 300 300 301 301 300 303 304 309 302 306 308 308
309 309 311 305 306 307 312 309 305 303 301 298 298 296 293 292 292 293 293 293 292 291 292 294 296 298 300 300 300 299 300 300 300 300 298 299 300 302 302 305 305 301 300 304
311 309 311 300 307 308 301 299 301 300 299 297 295 293 292 291 291 291 291 292 292 291 289 291 293 296 294 294 293 297 298 296 296 300 298 298 301 303 301 300 300 302 302 299
306 305 300 298 298 296 297 297 297 297 298 297 294 292 291 291 290 290 291 291 291 291 289 288 289 290 290 290 291 291 293 293 295 294 297 298 296 296 298 297 296 293 295 292
305 301 299 298 297 296 296 294 295 296 296 296 294 292 291 291 291 291 290 290 290 290 289 288 287 286 288 288 288 290 290 289 292 294 292 292 292 293 293 291 292 291 290 291
302 300 299 297 295 295 295 295 295 295 294 295 295 293 293 292 291 290 289 289 289 288 287 286 285 284 285 287 288 288 287 286 286 287 288 289 290 287 288 288 288 289 290 290
303 298 298 295 293 292 292 292 293 293 293 292 292 292 291 289 288 288 287 287 287 286 285 284 284 286 287 286 286 287 286 286 285 285 285 285 287 287 287 288 288 288 288 288
297 295 295 293 292 292 292 292 291 291 291 290 289 289 288 287 286 285 285 285 284 283 283 282 285 287 287 287 287 287 285 285 284 284 284 284 284 284 285 285 286 287 288 288
296 296 296 295 294 292 292 290 289 288 288 287 286 285 284 283 283 282 281 281 281 281 281 283 285 286 285 286 286 284 285 285 284 283 283 284 283 283 283 282 283 284 285 286
295 295 294 293 292 291 291 290 290 288 287 285 285 284 283 282 280 280 280 281 281 280 281 282 284 284 284 284 284 285 285 284 283 284 284 283 282 282 281 281 280 279 279 282
293 293 292 291 290 289 289 288 288 286 284 283 282 281 280 279 279 279 281 282 281 280 281 282 282 282 283 283 281 281 282 283 281 281 281 281 281 281 280 280 279 278 280 281
293 292 291 289 288 287 286 285 284 283 281 280 279 279 279 279 279 281 281 281 281 280 280 280 279 279 279 280 280 279 280 280 280 280 280 280 280 279 279 278 277 276 276 276
289 288 288 288 287 286 284 283 282 281 280 278 280 280 280 280 279 280 280 280 280 280 279 278 277 277 277 277 278 279 279 279 278 278 278 277 278 277 277 277 276 275 274 274
287 286 285 285 285 284 283 281 280 279 280 280 280 280 279 279 279 278 277 277 276 276 276 276 276 276 276 276 277 278 278 277 278 277 277 276 276 276 276 275 275 274 273 273
284 283 282 281 281 280 280 280 279 280 280 280 279 279 277 276 275 275 275 276 275 274 274 274 274 274 274 274 275 276 276 276 276 275 275 275 275 274 274 273 273 273 272 272
280 281 281 281 281 280 280 280 280 279 279 278 277 276 276 276 275 275 276 278 275 273 273 273 273 273 273 273 275 274 274 274 274 274 274 274 274 273 273 272 272 272 271 271
280 281 280 280 280 280 279 279 278 278 277 276 276 276 276 276 276 276 275 274 274 272 273 272 271 272 272 273 273 273 273 273 273 273 272 272 272 272 271 271 271 270 270 269
279 279 279 278 278 277 277 278 278 277 277 277 276 275 275 275 275 275 276 274 273 271 272 271 271 271 271 271 271 271 271 271 271 271 270 270 270 270 270 270 269 269 269 268
279 279 278 278 277 278 279 277 277 276 276 276 276 275 275 276 276 274 273 272 271 270 270 270 270 270 271 270 269 269 270 270 270 269 269 269 269 268 268 268 268 268 267 267
279 279 278 279 280 281 279 278 278 277 277 277 276 275 274 274 273 273 272 271 270 270 271 270 269 269 269 269 269 268 269 269 268 268 268 269 268 268 268 267 267 267 267 266
280 281 281 279 279 279 279 279 279 279 278 278 278 276 274 273 272 271 271 271 270 270 270 270 269 268 268 269 268 268 268 268 268 268 268 267 267 267 267 266 266 266 266 265
280 279 280 279 279 278 278 277 277 277 277 277 276 276 274 273 272 271 271 271 271 270 270 269 269 269 268 268 267 268 268 268 268 267 267 267 267 267 266 266 266 266 266 265
Wind_Speed
1 15 11 9 9 7 5 2 3 9 8 14 13 11 13 14 15 18 22 24 25 32 38 30 27 18 13 14 18 25 26 26 23 19 18 17 21 18 19 21 17 16 17 16
13 13 13 10 6 3 4 2 2 3 12 14 17 15 15 15 14 16 17 21 27 30 33 38 31 27 19 17 17 19 22 26 23 22 21 25 21 23 20 21 22 19 19 19
9 6 13 10 8 5 9 12 11 10 14 11 12 13 15 13 13 14 14 18 24 27 29 32 32 30 28 23 17 19 19 19 20 22 23 24 23 22 23 22 21 20 20 20
4 5 6 10 10 7 14 15 16 14 15 11 13 17 17 15 12 12 13 15 19 22 26 26 27 28 29 28 26 23 24 19 15 14 18 23 24 24 24 22 23 24 23 22
1 7 13 7 10 9 7 12 16 14 16 11 14 14 15 13 12 11 13 13 15 17 17 19 22 23 23 22 24 29 29 22 20 17 13 14 19 16 19 18 16 16 16 17
0 4 4 7 16 16 11 4 16 17 13 11 8 3 3 9 9 11 15 13 14 14 12 10 13 15 18 18 22 24 23 19 20 16 18 14 17 18 16 15 12 12 8 6
2 2 6 11 22 23 5 5 15 15 14 15 5 5 4 5 10 12 12 13 12 14 15 14 12 10 10 13 16 18 16 16 11 16 11 17 14 16 13 12 7 10 9 7
3 2 4 24 7 6 7 12 11 12 11 14 12 9 9 9 11 13 14 13 13 14 15 15 12 12 12 14 14 12 11 11 12 12 10 11 12 10 10 8 7 7 8 7
6 3 4 10 10 8 8 9 12 11 10 9 9 9 8 9 12 14 12 12 13 14 15 17 16 14 14 14 11 11 10 11 15 16 13 14 11 13 12 10 11 13 14 11
4 5 8 9 10 11 10 10 10 10 9 8 8 8 10 11 11 11 12 13 13 13 15 16 15 15 14 14 13 10 12 16 17 15 15 15 16 14 15 15 13 14 13 13
4 8 9 10 10 9 9 9 9 9 9 8 7 8 8 8 9 10 10 12 13 13 15 16 15 15 14 13 11 11 13 13 14 16 19 20 20 18 19 17 15 16 14 13
3 3 6 6 6 7 8 9 9 7 7 9 8 7 7 8 9 9 10 11 12 13 13 14 14 15 15 12 11 9 11 11 12 11 12 14 17 18 20 17 15 15 15 15
3 6 8 7 4 5 6 7 7 7 7 6 8 7 7 7 8 9 10 11 12 12 12 12 13 14 15 15 12 11 11 10 9 9 10 9 9 8 12 15 14 12 13 13
4 6 4 2 3 3 4 4 6 7 7 7 6 6 6 7 8 9 10 10 9 10 10 10 10 11 12 11 11 12 11 10 9 9 9 9 9 9 9 8 9 12 11 10
4 4 5 4 2 3 3 3 3 4 5 6 6 6 6 7 7 8 7 8 9 9 10 10 9 9 9 11 10 8 7 9 9 8 8 9 9 9 9 8 8 8 7 7
2 3 3 3 2 3 3 4 2 3 4 4 4 5 5 6 6 7 7 7 6 8 9 8 8 8 8 7 10 8 7 7 7 6 6 7 7 8 8 8 7 6 6 6
5 2 2 0 2 3 4 4 4 3 4 4 4 3 4 4 5 5 5 6 7 8 8 8 8 8 7 6 8 7 7 8 8 7 7 7 7 7 6 6 6 5 5 5
5 4 3 1 2 2 2 4 4 3 3 2 2 2 2 0 3 4 5 6 6 7 8 8 7 7 7 6 6 7 6 6 6 5 5 5 6 5 5 5 5 5 5 6
4 4 4 4 4 4 4 4 4 3 3 3 3 3 3 3 3 4 4 5 7 7 9 7 7 7 7 6 5 6 5 4 4 4 5 6 5 5 5 5 5 5 5 5
7 7 6 7 7 6 6 5 5 4 4 3 2 2 3 3 4 5 6 7 7 5 6 6 6 8 7 6 6 5 4 5 4 4 3 4 4 5 7 5 5 4 4 4
7 7 8 7 8 7 7 6 5 4 3 2 1 2 3 5 5 5 6 3 14 8 8 10 7 2 6 3 6 4 4 4 3 3 2 3 4 3 3 3 3 2 2 2
7 8 8 8 7 6 6 5 4 2 2 1 2 4 6 8 10 9 9 3 7 7 4 5 6 5 4 4 3 3 3 2 2 2 2 2 1 1 1 1 1 1 1 2
6 7 6 6 5 4 3 2 1 1 2 3 5 5 4 5 5 4 4 9 3 7 4 9 8 6 3 4 3 3 2 2 2 1 1 1 1 1 1 2 2 2 3 3
6 5 4 4 3 3 2 4 2 5 5 8 8 7 5 5 6 5 7 9 8 6 7 9 7 5 2 4 3 3 2 2 2 2 3 3 2 3 3 4 3 3 5 6
5 5 3 2 0 1 4 4 4 5 7 6 7 8 8 7 6 7 6 8 10 4 6 15 10 6 4 3 4 3 3 3 5 2 3 4 4 4 4 5 6 5 7 7
3 1 2 3 3 4 5 7 8 9 10 11 11 11 10 9 9 8 8 9 7 8 5 8 8 8 5 6 7 6 6 5 6 6 8 6 6 7 7 7 7 7 7 8
2 2 3 4 6 5 6 7 8 9 10 11 11 11 10 11 9 10 9 7 7 8 9 8 9 10 8 8 7 7 7 7 10 9 8 8 8 8 8 9 9 9 10 11
Wind_Direction
27 135 152 143 147 166 150 13 309 26 356 69 76 74 70 67 54 41 33 30 24 29 30 23 23 35 66 108 153 161 166 165 166 176 183 184 177 178 200 195 185 193 199 199
77 96 105 98 89 102 69 52 332 293 76 78 83 78 63 54 51 47 36 32 36 37 42 28 27 32 48 74 109 148 162 162 163 174 180 175 178 180 187 191 196 197 201 202
98 105 127 82 28 60 93 52 9 35 14 77 73 65 42 53 48 41 38 38 42 42 37 47 31 36 44 53 77 103 131 140 150 166 180 179 186 184 187 188 195 199 204 208
112 209 121 79 34 15 88 54 23 5 27 41 96 87 62 50 47 29 30 34 37 37 41 35 44 36 41 47 57 68 80 88 112 128 148 167 176 184 190 191 199 204 207 209
11 70 118 113 34 17 342 64 26 9 15 106 128 105 56 41 46 35 33 24 30 32 40 36 28 37 36 39 44 51 54 54 66 80 89 117 134 137 152 157 164 171 185 191
227 152 174 34 356 349 311 107 8 7 16 357 168 317 56 22 44 40 31 24 27 32 33 39 39 22 28 30 36 42 46 40 52 59 65 87 95 92 89 110 117 111 107 131
46 27 100 358 318 315 256 28 9 23 28 36 78 56 90 43 45 47 31 28 31 35 36 39 41 41 36 32 39 42 39 35 39 46 57 56 75 76 72 72 86 92 75 52
322 334 93 353 14 36 329 25 34 45 50 70 80 74 55 41 35 42 38 33 37 40 36 36 44 54 49 52 42 47 50 56 62 64 76 70 62 72 89 96 87 100 84 79
22 59 53 32 52 36 37 49 42 53 50 66 72 67 56 38 36 40 36 36 43 46 45 37 39 50 50 40 51 51 55 59 66 68 65 64 85 87 96 94 87 77 94 98
192 74 66 57 55 49 46 49 45 46 44 48 55 47 46 45 39 35 36 40 39 43 45 47 39 40 61 49 32 47 54 53 55 60 67 81 80 81 97 95 97 98 91 87
92 128 111 67 50 43 45 46 43 42 42 37 38 42 45 47 44 39 35 40 48 47 44 41 39 43 46 53 47 49 55 57 65 64 73 76 80 84 87 89 95 97 92 99
59 45 73 79 54 43 44 36 30 33 37 38 44 44 48 52 51 53 46 41 43 45 48 46 43 44 51 70 84 58 54 56 67 67 60 60 69 72 72 72 80 84 93 93
88 76 103 112 83 61 49 39 33 34 34 33 38 47 55 60 58 58 56 52 44 40 45 45 50 55 57 59 61 75 86 79 71 79 84 87 86 67 63 69 69 80 87 91
100 125 127 154 81 55 43 38 38 40 43 43 40 49 67 66 58 56 52 50 53 51 47 48 49 57 61 59 66 61 60 72 76 77 75 77 79 86 95 83 75 77 78 80
77 77 86 105 67 32 15 7 22 32 32 39 43 46 46 52 53 50 53 51 35 41 43 44 46 51 59 63 47 48 58 59 52 57 68 70 64 67 70 68 67 69 58 62
120 102 84 73 37 19 14 21 51 44 48 52 59 60 61 66 62 51 46 53 53 39 32 34 36 40 51 63 58 36 36 65 66 53 53 55 61 61 61 60 52 44 40 54
194 207 161 118 18 25 34 48 69 84 85 84 84 86 56 44 31 30 23 21 17 13 12 8 14 13 13 36 50 30 36 26 47 43 50 50 56 56 55 59 56 38 36 50
80 83 78 89 148 115 73 78 85 97 116 145 85 76 54 31 354 358 356 0 359 358 355 356 356 357 357 0 35 23 21 25 29 36 38 57 50 51 57 61 64 65 48 35
84 87 84 92 98 120 125 134 151 144 101 84 59 33 14 1 2 5 7 15 22 4 348 354 357 357 355 359 38 13 17 28 31 33 36 44 41 53 59 61 62 65 60 54
89 93 100 101 109 120 129 120 113 113 107 100 75 29 6 358 358 6 9 0 341 339 348 354 12 357 359 8 48 16 24 24 27 25 72 55 53 41 26 37 67 55 49 44
110 115 114 111 114 117 117 117 120 119 109 91 73 8 353 349 348 354 24 317 307 340 1 1 337 10 341 18 28 12 25 28 37 39 48 43 39 44 41 42 41 46 44 37
115 123 125 126 128 133 134 132 127 117 94 56 20 11 19 357 353 346 335 306 320 325 5 331 315 321 321 47 2 14 19 24 23 27 24 33 28 9 354 353 357 329 330 330
130 132 135 123 106 126 119 108 79 37 345 339 345 353 351 343 335 334 307 312 323 309 355 293 316 319 313 359 2 359 357 7 6 347 341 338 335 320 307 264 281 304 300 297
139 139 134 138 98 47 6 310 23 303 325 327 322 324 335 322 316 325 325 322 318 326 318 304 330 344 28 1 354 347 346 321 322 313 299 348 304 319 298 292 295 294 303 310
154 148 150 129 343 319 324 301 302 294 303 300 287 307 324 306 315 298 291 299 315 336 297 314 326 336 4 318 320 323 321 315 274 262 296 294 294 302 301 297 306 292 287 307
155 198 253 269 287 306 308 305 302 299 297 295 292 280 287 298 301 313 308 304 299 298 310 295 310 307 304 307 300 309 305 297 306 306 285 296 292 293 295 299 298 300 297 294
263 279 289 303 302 305 296 294 302 296 295 293 290 287 283 288 290 292 286 289 298 293 298 301 301 302 289 280 296 298 299 298 293 285 281 279 281 283 284 290 292 291 289 289